Probability
0 0 0 0 0 0 0 0 0 0 0 0 0 0 0 0 0 0 0 16 26 26 23 23 23 23 16 19 23 16 23 23 23 19 19 13 16 16 13 10 10 13 16
0 0 0 0 0 0 0 0 0 0 0 0 0 0 0 0 0 0 0 3 29 19 19 13 10 16 13 13 13 16 16 16 16 16 16 16 19 16 13 13 13 13 13
0 0 0 0 0 0 0 0 0 0 0 0 0 0 0 0 0 0 0 0 0 23 23 13 10 10 13 13 19 16 10 16 16 16 16 16 16 19 19 16 13 10 10
0 0 0 0 0 0 0 0 0 0 0 0 0 0 0 0 0 0 0 0 0 0 16 19 19 16 10 10 10 10 10 13 16 16 16 13 13 13 16 16 13 13 10
0 0 0 0 0 0 0 0 0 0 0 0 0 0 0 0 0 0 0 0 0 0 0 10 19 23 16 16 13 10 13 10 13 13 13 13 13 10 10 6 10 6 6
0 0 0 0 0 0 0 0 0 0 0 0 0 0 0 0 0 0 0 0 0 0 0 0 3 13 19 19 16 13 10 13 10 10 10 10 10 6 3 3 6 10 10
0 0 0 0 0 0 0 0 0 0 0 0 0 0 0 0 0 0 0 0 0 0 0 0 0 0 3 19 16 16 13 13 13 10 10 10 6 10 3 6 6 10 6
0 0 0 0 0 0 0 0 0 0 0 0 0 0 0 0 0 0 0 0 0 0 0 0 0 0 0 3 0 13 10 6 6 6 6 6 6 6 3 3 3 3 3
0 0 0 0 0 0 0 0 0 0 0 0 0 0 0 0 0 0 0 0 0 0 0 0 0 0 0 0 0 0 10 10 6 6 6 6 6 6 3 3 3 3 3
3 0 0 0 0 0 0 0 0 0 0 0 0 0 0 0 0 0 0 0 0 0 0 0 0 0 0 0 0 0 6 10 6 6 6 3 3 6 6 6 6 3 3
3 3 0 0 0 0 0 0 0 0 0 0 0 0 0 0 0 0 0 0 0 0 0 0 0 0 0 0 0 0 0 3 10 6 6 6 3 3 6 6 10 6 6
3 3 3 0 0 0 0 0 0 0 0 0 0 0 0 0 0 0 0 0 0 0 0 0 0 0 0 0 0 0 0 0 6 6 10 6 6 6 3 3 6 3 3
0 0 3 0 0 0 0 0 0 0 0 0 0 0 0 0 0 0 0 0 0 0 0 0 0 0 0 0 0 0 0 0 0 0 6 6 6 3 3 6 6 3 3
0 0 0 0 0 0 0 0 0 0 0 0 0 0 0 0 0 0 0 0 0 0 0 0 0 0 0 0 0 0 0 0 0 0 0 3 3 3 3 3 6 3 3
0 0 0 0 0 0 0 0 0 0 0 0 0 0 0 0 0 0 0 0 0 0 0 0 0 0 0 0 0 0 0 0 0 0 0 0 3 3 3 6 6 0 0
0 0 0 0 0 0 0 0 0 0 0 0 0 0 0 0 0 0 0 0 0 0 0 0 0 0 0 0 0 0 0 0 0 0 0 0 0 0 3 3 3 0 0
0 0 0 0 0 0 0 0 0 0 0 0 0 0 0 0 0 0 0 0 0 0 0 0 0 0 0 0 0 0 0 0 0 0 0 0 0 0 0 3 3 3 0
0 0 0 0 0 0 0 0 0 0 0 0 0 0 0 0 0 0 0 0 0 0 0 0 0 0 0 0 0 0 0 0 0 0 0 0 0 0 0 0 0 3 3
0 0 0 0 0 0 0 0 0 0 0 0 0 0 0 0 0 0 0 0 0 0 0 0 0 0 0 0 0 0 0 0 0 0 0 0 0 0 0 0 0 0 0
0 0 0 0 0 0 0 0 0 0 0 0 0 0 0 0 0 0 0 0 0 0 0 0 0 0 0 0 0 0 0 0 0 0 0 0 0 0 0 0 0 0 0
0 0 0 0 0 0 0 0 0 0 0 0 0 0 0 0 0 0 0 0 0 0 0 0 0 0 0 0 0 0 0 0 0 0 0 0 0 0 0 0 0 0 0
0 0 0 0 0 0 0 0 0 0 0 0 0 0 0 0 0 0 0 0 0 0 0 0 0 0 0 0 0 0 0 0 0 0 0 0 0 0 0 0 0 0 0
0 0 0 0 0 0 0 0 0 0 0 0 0 0 0 0 0 0 0 0 0 0 0 0 0 0 0 0 0 0 0 0 0 0 0 0 0 0 0 0 0 0 0
0 0 0 0 0 0 0 0 0 0 0 0 0 0 0 0 0 0 0 0 0 0 0 0 0 0 0 0 0 0 0 0 0 0 0 0 0 0 0 0 0 0 0
0 0 0 0 0 0 0 0 0 0 0 0 0 0 0 0 0 0 0 0 0 0 0 0 0 0 0 0 0 0 0 0 0 0 0 0 0 0 0 0 0 0 0
0 0 0 0 0 0 0 0 0 0 0 0 0 0 0 0 0 0 0 0 0 0 0 0 0 0 0 0 0 0 0 0 0 0 0 0 0 0 0 0 0 0 0
Height
5853 5852 5852 5851 5851 5850 5849 5849 5848 5848 5848 5847 5847 5846 5846 5845 5844 5843 5843 5843 5843 5842 5842 5842 5842 5842 5841 5841 5841 5841 5841 5841 5841 5841 5841 5841 5842 5842 5842 5843 5843 5844 5844
5851 5850 5850 5849 5848 5847 5847 5846 5845 5845 5845 5844 5844 5844 5843 5842 5842 5841 5840 5840 5840 5839 5839 5839 5838 5838 5838 5838 5838 5838 5838 5838 5838 5838 5838 5838 5839 5839 5839 5839 5840 5841 5841
5848 5848 5847 5846 5845 5845 5844 5843 5843 5842 5842 5841 5841 5841 5840 5839 5839 5838 5838 5837 5837 5837 5836 5836 5835 5835 5835 5835 5834 5834 5834 5835 5835 5835 5835 5835 5836 5836 5836 5836 5837 5837 5838
5846 5845 5844 5843 5843 5842 5841 5840 5840 5839 5838 5838 5838 5838 5837 5837 5836 5836 5835 5834 5834 5834 5833 5833 5832 5832 5832 5832 5831 5831 5831 5831 5832 5832 5832 5832 5832 5833 5833 5833 5834 5834 5834
5843 5842 5841 5841 5840 5839 5838 5837 5836 5836 5835 5835 5834 5834 5834 5834 5833 5832 5832 5832 5831 5831 5830 5830 5830 5829 5829 5828 5828 5828 5828 5828 5828 5828 5829 5829 5829 5829 5830 5830 5830 5831 5831
5840 5840 5839 5838 5837 5836 5835 5834 5833 5833 5832 5831 5831 5831 5831 5830 5830 5830 5829 5829 5828 5828 5827 5827 5827 5826 5826 5826 5825 5825 5825 5825 5825 5825 5825 5826 5826 5826 5826 5827 5827 5828 5828
5837 5837 5836 5835 5834 5833 5832 5831 5830 5829 5829 5828 5828 5827 5827 5827 5827 5826 5826 5826 5825 5825 5824 5824 5824 5823 5823 5823 5822 5822 5822 5822 5822 5822 5822 5823 5823 5823 5824 5824 5824 5825 5825
5834 5833 5833 5832 5830 5829 5828 5828 5827 5826 5825 5824 5824 5824 5824 5824 5823 5823 5823 5822 5822 5822 5821 5821 5820 5820 5820 5819 5819 5819 5819 5819 5819 5819 5819 5819 5820 5820 5820 5821 5821 5822 5822
5831 5830 5829 5828 5827 5826 5824 5823 5823 5822 5822 5821 5821 5821 5820 5820 5820 5819 5819 5819 5819 5818 5818 5818 5817 5816 5816 5816 5816 5816 5816 5815 5815 5816 5816 5816 5816 5816 5817 5817 5818 5818 5819
5827 5826 5825 5824 5823 5821 5820 5819 5819 5818 5817 5817 5817 5817 5817 5816 5816 5816 5816 5815 5815 5815 5814 5814 5813 5813 5812 5812 5812 5812 5812 5812 5812 5812 5812 5812 5812 5813 5813 5814 5814 5815 5815
5823 5822 5820 5819 5818 5817 5816 5815 5815 5814 5813 5813 5813 5812 5812 5812 5812 5812 5812 5812 5811 5811 5810 5810 5809 5809 5808 5808 5808 5808 5808 5808 5808 5808 5808 5808 5809 5809 5810 5810 5811 5811 5812
5818 5817 5816 5815 5813 5812 5811 5811 5810 5810 5809 5809 5809 5808 5808 5808 5808 5808 5808 5807 5807 5806 5806 5805 5805 5805 5804 5804 5804 5804 5804 5804 5804 5804 5804 5804 5805 5805 5805 5806 5807 5807 5808
5813 5812 5811 5809 5808 5807 5807 5806 5806 5805 5805 5804 5804 5804 5804 5804 5804 5804 5804 5803 5802 5802 5801 5801 5800 5800 5800 5800 5799 5799 5799 5799 5800 5800 5800 5800 5801 5801 5801 5802 5802 5803 5803
5807 5806 5805 5804 5803 5802 5801 5801 5800 5800 5800 5799 5799 5799 5799 5799 5799 5799 5799 5799 5798 5798 5797 5797 5796 5796 5795 5795 5795 5795 5795 5795 5795 5795 5796 5796 5796 5796 5797 5797 5798 5798 5799
5802 5801 5800 5799 5798 5797 5796 5795 5795 5794 5794 5794 5794 5794 5794 5794 5794 5794 5794 5794 5794 5793 5793 5792 5791 5791 5791 5790 5790 5790 5790 5790 5790 5790 5791 5791 5791 5792 5792 5792 5793 5793 5793
5796 5795 5794 5793 5792 5791 5790 5789 5789 5788 5788 5788 5788 5788 5788 5788 5788 5788 5788 5788 5788 5788 5787 5787 5786 5786 5785 5785 5785 5785 5785 5785 5785 5785 5785 5785 5786 5786 5786 5787 5787 5788 5788
5790 5789 5788 5787 5786 5785 5784 5783 5783 5782 5782 5782 5781 5781 5781 5781 5782 5782 5782 5782 5782 5781 5781 5781 5780 5780 5780 5780 5779 5779 5779 5779 5779 5779 5780 5780 5780 5780 5781 5781 5781 5782 5782
5784 5783 5781 5780 5779 5778 5777 5777 5776 5776 5775 5775 5774 5775 5775 5775 5775 5775 5775 5775 5775 5775 5775 5775 5774 5774 5774 5774 5773 5773 5773 5773 5773 5773 5774 5774 5774 5774 5774 5775 5775 5775 5776
5778 5776 5775 5774 5772 5771 5771 5770 5769 5769 5768 5768 5768 5768 5768 5768 5768 5768 5768 5768 5768 5768 5768 5768 5768 5768 5768 5767 5767 5767 5767 5767 5767 5767 5767 5767 5767 5767 5767 5768 5768 5769 5769
5772 5770 5768 5767 5766 5765 5764 5763 5762 5761 5761 5761 5761 5760 5760 5760 5761 5760 5760 5761 5761 5761 5761 5761 5761 5761 5761 5761 5761 5761 5761 5760 5760 5760 5760 5760 5760 5760 5760 5761 5761 5762 5762
5765 5763 5762 5760 5759 5758 5757 5756 5755 5754 5754 5754 5754 5753 5753 5753 5753 5753 5753 5753 5753 5754 5754 5754 5754 5754 5754 5754 5754 5754 5754 5753 5753 5753 5753 5753 5753 5753 5752 5753 5753 5754 5754
5758 5756 5755 5753 5752 5751 5749 5749 5748 5747 5747 5746 5746 5746 5746 5745 5745 5745 5745 5745 5746 5746 5746 5746 5747 5747 5746 5746 5746 5746 5746 5746 5745 5745 5745 5745 5745 5745 5745 5745 5745 5745 5746
5751 5749 5747 5746 5744 5743 5742 5741 5740 5740 5740 5739 5739 5738 5738 5738 5738 5738 5737 5738 5738 5738 5738 5739 5739 5739 5739 5738 5738 5738 5737 5737 5737 5737 5737 5736 5736 5736 5736 5736 5736 5737 5737
5743 5741 5739 5738 5736 5735 5734 5733 5732 5732 5732 5731 5731 5731 5730 5730 5730 5730 5730 5730 5730 5730 5730 5730 5730 5730 5730 5730 5730 5729 5729 5729 5728 5728 5728 5728 5727 5727 5727 5727 5727 5728 5728
5734 5732 5730 5729 5728 5726 5725 5725 5724 5724 5723 5723 5723 5722 5722 5722 5722 5722 5722 5722 5722 5721 5721 5721 5722 5721 5721 5721 5720 5720 5720 5719 5719 5719 5718 5718 5718 5718 5718 5718 5718 5718 5718
5724 5723 5721 5720 5719 5718 5717 5716 5715 5715 5715 5714 5714 5714 5714 5713 5713 5712 5713 5713 5713 5712 5712 5712 5712 5712 5712 5711 5711 5711 5710 5710 5710 5710 5709 5709 5708 5708 5708 5708 5708 5708 5708
Wind_Speed
9 9 9 9 10 11 11 10 11 12 12 11 11 10 10 10 10 11 11 11 11 12 12 12 12 12 13 13 13 14 14 13 13 13 13 14 14 14 14 13 13 12 13
8 8 9 9 10 11 11 11 11 11 11 11 11 11 10 10 10 10 10 11 11 11 11 11 11 12 12 12 13 13 13 13 13 13 13 13 13 13 13 13 14 14 14
9 9 10 10 10 11 11 11 12 11 11 11 12 11 11 10 11 11 10 10 11 11 11 11 12 12 12 12 12 12 12 12 12 12 12 13 13 13 13 14 14 14 14
10 10 10 11 11 12 12 12 12 12 12 12 12 11 11 11 11 10 10 10 10 10 10 11 12 12 12 12 12 12 12 12 12 12 12 12 13 13 13 14 14 14 14
10 10 10 11 11 11 12 12 12 12 11 11 11 12 12 12 11 11 11 11 10 10 10 11 12 12 11 11 12 12 12 12 12 12 12 12 13 13 13 13 13 14 14
10 10 11 11 11 12 12 11 11 11 11 10 10 11 12 12 11 10 11 11 11 10 10 11 12 12 11 11 11 11 11 12 12 12 12 12 13 13 13 13 13 13 13
11 11 11 11 11 11 11 11 12 11 11 10 10 11 11 11 11 11 10 11 11 11 12 12 11 12 12 12 12 12 12 12 12 11 11 11 13 13 12 12 12 12 13
12 12 12 12 12 11 11 12 12 12 11 11 11 11 11 11 11 11 11 12 12 12 12 13 12 12 11 12 12 12 12 12 12 12 12 12 12 13 13 12 11 12 12
12 12 12 12 12 13 12 12 12 12 12 11 11 11 11 11 11 12 12 12 12 12 13 13 14 13 13 13 13 13 13 13 13 13 13 13 13 13 13 13 13 13 13
13 14 14 13 13 14 14 13 12 13 13 13 13 12 12 12 12 12 12 12 12 12 13 13 14 14 14 14 14 14 14 13 13 13 13 13 13 13 13 13 13 13 13
15 15 15 15 15 15 14 14 13 13 13 13 13 12 12 12 13 13 12 13 13 13 14 13 13 14 14 14 13 13 13 13 13 13 13 13 13 13 14 13 13 13 13
16 16 16 16 16 16 15 14 14 14 14 13 13 13 13 13 13 13 13 13 13 13 14 13 13 13 14 14 14 14 14 13 13 13 13 13 14 14 15 15 15 14 14
17 17 16 16 17 17 16 15 15 15 14 14 14 14 14 14 13 13 14 14 14 14 14 14 14 14 14 14 14 14 15 15 14 14 14 14 14 14 15 16 16 16 16
17 17 17 17 17 17 17 16 16 15 15 15 15 15 16 15 15 15 15 15 15 14 14 15 15 15 15 15 15 15 15 15 15 15 15 15 15 15 16 16 17 17 17
17 17 18 18 17 17 18 18 18 17 17 16 16 17 17 17 17 16 17 16 16 15 16 16 16 16 16 15 15 16 16 16 16 16 16 16 17 17 17 17 17 18 18
18 18 18 18 18 18 18 18 19 19 18 18 18 18 19 19 19 19 18 18 18 17 18 18 17 17 17 17 17 17 17 17 18 18 18 18 18 19 19 19 19 19 19
19 19 19 19 19 19 19 19 20 20 20 20 20 20 20 21 21 20 20 20 20 19 19 19 19 19 19 19 19 19 18 18 18 18 19 19 20 20 20 20 20 20 20
19 19 19 19 20 20 20 20 20 21 22 22 22 21 21 22 22 22 22 22 22 21 20 20 20 20 20 20 20 19 18 18 19 19 20 20 20 20 20 20 21 21 21
19 19 20 20 20 21 21 21 22 22 22 23 23 23 23 23 23 23 23 23 23 23 22 21 21 21 21 21 21 21 20 20 21 21 22 22 22 22 22 22 22 22 22
20 20 20 20 20 20 21 21 22 22 22 23 23 23 24 25 25 24 24 23 23 23 23 23 22 22 22 22 22 22 22 23 23 24 24 24 24 24 24 23 23 23 24
21 22 21 21 21 21 21 22 22 22 22 22 23 23 24 24 24 24 24 24 24 24 24 24 23 22 23 24 24 24 25 25 25 25 25 25 25 25 25 25 25 25 25
22 22 23 23 23 23 23 22 21 22 22 23 23 22 22 23 23 23 23 24 24 24 25 25 24 24 24 25 25 25 26 26 26 27 27 27 27 27 27 27 28 27 27
24 24 24 24 24 24 24 24 23 23 23 24 24 24 24 24 24 23 24 24 25 25 26 26 26 26 26 26 27 27 27 27 28 28 28 28 28 29 29 29 29 29 29
26 26 26 25 25 25 25 26 26 25 25 25 26 26 26 25 25 26 26 26 26 26 27 27 28 27 27 27 28 27 27 28 29 29 29 29 30 30 30 30 31 30 30
28 28 27 27 27 27 27 27 27 27 27 26 27 27 28 28 27 27 28 28 28 28 29 29 29 28 28 28 29 29 29 29 29 29 30 30 30 31 31 32 32 32 32
29 29 28 28 28 28 28 28 28 28 28 28 28 28 28 29 29 29 29 29 29 29 29 30 30 31 30 30 30 31 31 30 30 30 31 31 31 32 31 32 33 33 33
Wind_Direction
288 287 286 285 284 286 285 283 279 276 274 275 273 274 273 278 279 276 274 274 273 272 272 271 269 268 265 261 262 263 263 259 258 257 257 254 255 257 256 254 251 250 248
292 288 288 290 292 289 286 285 284 280 275 275 276 277 276 275 276 276 272 272 271 270 269 269 270 270 268 264 264 265 261 258 259 258 258 256 257 256 254 253 250 248 242
289 287 288 290 291 290 289 287 286 283 275 275 275 274 273 274 274 275 272 270 269 270 268 268 274 272 266 266 268 264 259 256 256 255 254 253 254 253 253 251 249 246 244
291 291 293 292 291 288 287 287 286 281 278 275 270 268 270 271 271 273 274 271 272 271 271 270 271 268 268 265 267 266 262 256 253 253 254 254 255 254 252 252 252 248 248
293 292 293 295 293 287 284 286 286 283 279 276 270 267 268 269 272 276 278 279 277 276 274 271 270 269 269 264 264 263 260 256 253 251 253 254 253 253 253 253 251 248 248
289 289 291 292 292 286 282 284 285 282 276 272 269 269 269 268 268 268 271 274 275 276 274 273 271 270 267 265 266 262 264 262 261 254 251 251 252 251 252 253 249 248 247
290 287 288 292 291 287 284 282 280 279 274 271 270 270 270 269 267 266 267 269 271 272 273 276 275 272 269 267 269 270 267 266 264 261 257 253 250 249 251 253 248 247 247
291 292 290 291 289 288 286 283 282 279 276 272 272 271 270 270 269 267 265 267 268 269 272 274 274 274 271 269 269 269 267 263 262 261 260 258 252 250 250 249 247 247 247
287 289 290 291 290 289 287 284 283 281 279 274 273 270 269 269 268 267 267 269 270 271 272 273 274 272 271 270 268 266 267 266 262 259 260 260 258 252 249 250 249 249 249
288 287 287 286 286 286 284 281 282 281 280 274 271 269 269 271 273 270 270 272 271 271 273 274 274 271 270 270 269 267 266 265 263 261 259 259 258 256 251 251 253 252 250
288 287 285 285 284 280 279 278 276 277 278 274 269 268 268 272 274 271 271 273 274 272 273 274 272 270 270 271 271 268 265 262 260 260 259 259 259 257 254 251 252 251 250
288 286 285 283 284 279 276 276 276 275 275 274 270 267 268 271 274 274 271 273 274 275 275 274 272 271 270 269 269 267 266 262 258 259 259 259 259 257 255 253 252 251 252
288 287 283 283 282 281 277 274 274 275 273 272 270 267 267 268 270 271 271 273 275 275 275 274 273 273 272 269 268 267 267 263 260 259 260 260 260 258 256 255 254 252 253
288 285 283 282 280 278 276 272 272 272 272 272 269 267 265 265 266 267 269 272 273 272 272 272 272 271 270 267 266 267 266 264 261 259 260 261 261 261 260 257 256 255 254
285 283 282 281 280 277 274 272 271 270 271 272 271 267 265 263 263 266 268 270 272 271 269 271 270 269 270 268 267 267 266 263 262 261 261 260 261 262 262 260 259 258 257
284 283 281 279 278 277 275 272 271 269 267 269 271 268 265 264 264 265 267 268 269 270 269 270 270 268 269 267 267 268 267 264 262 261 261 261 262 262 263 262 261 261 261
282 281 279 277 277 277 275 272 270 268 266 267 268 266 266 265 264 264 266 267 267 269 268 268 269 268 267 265 266 266 267 267 265 264 263 262 262 262 262 261 260 261 262
283 282 279 277 276 277 275 273 271 269 267 267 268 266 267 267 264 264 265 266 267 268 268 268 269 269 268 267 267 267 267 267 267 266 265 263 263 263 263 262 261 261 262
283 283 282 279 278 277 276 274 272 272 269 267 268 268 268 267 265 264 264 265 267 267 268 269 268 269 268 268 267 266 266 268 269 268 267 265 264 264 264 263 263 262 262
284 284 283 281 279 277 276 274 274 273 270 269 268 267 267 266 266 265 263 264 265 266 267 267 266 267 268 269 268 267 266 268 269 268 267 266 265 264 263 263 263 263 263
286 283 283 281 279 278 277 275 274 272 270 269 269 268 266 265 266 266 262 262 263 264 266 266 266 268 269 269 269 269 267 268 269 268 266 266 265 265 264 264 265 265 264
286 284 284 282 278 277 275 274 275 274 271 270 269 268 267 265 265 264 261 260 263 264 265 265 266 268 270 270 270 270 269 269 268 268 266 265 265 266 265 265 265 265 263
284 285 284 282 277 275 274 272 272 274 273 271 271 270 269 268 265 265 264 263 263 265 266 266 265 268 270 270 270 270 270 271 269 268 266 265 265 266 266 266 264 264 263
282 283 284 282 278 274 272 272 271 270 271 271 270 268 269 268 267 266 266 265 266 265 266 267 267 268 270 271 270 271 271 271 269 268 268 268 267 267 267 267 266 264 264
282 282 282 281 279 276 274 273 271 269 270 270 270 270 270 269 269 268 268 266 265 265 266 268 268 268 270 270 271 272 273 273 271 270 270 269 268 269 269 268 266 264 263
280 281 280 279 277 275 274 274 272 270 269 269 269 270 271 270 270 269 268 267 266 265 265 266 268 268 270 271 272 273 273 272 270 270 270 270 269 269 269 269 266 264 262